Location: NJAA Observatory
(40.6819°N, 74.8979°W)
Time: 14:27:55
(UTC-04:00)

Daily predictions for brighter satellites

Satellite Brightness Start Highest point End
(mag) Time Altitude Azimuth Time Altitude Azimuth Time Altitude Azimuth
ATLAS 2AS CENTAUR R/B 3.9 20:12:08 10° SSE 20:18:04 25° ESE 20:24:17 10° NE
Cosmos 839 Rocket 4.1 20:12:29 10° SSW 20:18:40 59° ESE 20:24:46 10° NE
SL-16 R/B 2.9 20:15:08 10° SSE 20:20:04 32° ESE 20:25:02 10° NE
Cosmos 1092 Rocket 4.5 20:14:28 10° SSW 20:20:33 67° W 20:26:44 10° N
Cosmos 1441 Rocket 3.4 20:17:57 10° NNW 20:21:41 74° W 20:25:24 10° S
Intercosmos 25 Rocket 4.1 20:18:41 10° NNW 20:21:53 46° W 20:24:58 10° SSW
Meteor 1-20 Rocket 4.3 20:17:55 10° S 20:23:30 86° W 20:29:01 10° N
NOSS 3-1 (A) 3.8 20:18:56 10° SW 20:24:40 72° NW 20:31:08 10° NNE
Cosmos 1939 Rocket 3.9 20:21:18 10° SE 20:24:40 27° ENE 20:28:02 10° NNE
Okean 1 3.3 20:21:52 10° N 20:25:50 72° E 20:29:48 10° SSE
Cosmos 1452 Rocket 3.5 20:22:46 10° S 20:27:59 68° ESE 20:33:15 10° NNE
Cosmos 405 Rocket 4.3 20:24:30 10° NNW 20:28:05 38° W 20:31:43 10° SSW
Meteor 2-11 Rocket 4.5 20:22:36 10° N 20:28:39 63° E 20:34:38 10° SSE
Cosmos 1536 4.1 20:27:25 10° SE 20:30:32 22° E 20:33:40 10° NE
Cosmos 1420 Rocket 4.2 20:26:22 10° S 20:31:19 49° ESE 20:36:19 10° NNE
Cosmos 1633 2.5 20:28:02 10° S 20:31:38 88° ESE 20:35:17 10° N
Lacrosse 5 rocket 1.0 20:28:18 10° NW 20:31:59 83° NE 20:35:49 10° SE
Cosmos 407 Rocket 4.0 20:27:26 10° NNW 20:32:44 64° WSW 20:37:58 10° S
S3M 4.2 20:28:44 10° N 20:34:52 53° E 20:41:01 10° SSE
YAOGAN 6 3.8 20:34:18 11° SE 20:37:01 24° ENE 20:39:54 10° NNE
Cosmos 1553 Rocket 4.0 20:31:17 10° N 20:37:22 60° E 20:43:21 10° SSE
Cosmos 921 Rocket 3.8 20:35:47 10° SSW 20:39:52 53° WNW 20:43:59 10° N
MINOTAUR R/B 4.3 20:38:04 10° NNW 20:40:50 67° ENE 20:43:20 12° SSE
Okean 1 Rocket 4.3 20:38:22 10° SE 20:41:38 21° E 20:44:56 10° NE
Cosmos 2266 Rocket 4.5 20:37:46 10° SSE 20:43:11 36° E 20:48:36 10° NNE
Helios 1B rocket 3.5 20:40:18 10° NE 20:43:38 24° E 20:46:57 10° SSE
Cosmos 2360 Rocket 3.4 20:39:48 10° SE 20:43:40 19° E 20:47:34 10° NE
Cosmos 1980 Rocket 3.0 20:38:57 10° SW 20:44:26 55° WNW 20:49:57 10° NNE
Resurs 01 Rocket 1.9 20:40:42 10° S 20:45:08 72° WSW 20:49:37 10° NNW
Cosmos 1300 Rocket 4.1 20:42:33 10° SSE 20:46:28 35° E 20:50:24 10° NNE
Cosmos 676 Rocket 4.5 20:47:46 10° NNW 20:53:02 64° WSW 20:58:17 10° S
Tiangong 1 1.2 20:50:52 10° WNW 20:53:36 56° N 20:55:23 19° E
SeaSat 1 2.4 20:49:37 10° NNE 20:54:35 79° ESE 20:59:30 10° SSW
Meteor 1-13 Rocket 4.3 20:50:42 10° N 20:56:40 78° E 21:02:36 10° SSE
Cosmos 2151 Rocket 3.5 20:53:37 10° S 20:57:59 90° ESE 21:02:25 10° N
Meteor 2-4 Rocket 3.8 20:53:10 10° N 20:58:37 56° ENE 21:03:48 12° SSE
Cosmos 44 3.7 20:56:31 10° NW 21:00:51 54° WSW 21:05:15 11° SSE
Lacrosse 5 2.3 20:56:53 10° SSW 21:01:31 37° SE 21:06:09 10° ENE
NOSS 2-3 (C) 3.9 20:57:38 10° SSW 21:02:10 58° ESE 21:07:23 10° NE
DELTA 2 R/B (1) 4.2 20:58:57 10° W 21:04:18 46° SSW 21:07:58 19° SE
Spot 2 Rocket 4.2 21:00:03 10° S 21:05:03 56° W 21:10:04 10° NNW
Cosmos 1140 Rocket 3.7 21:00:01 10° NNW 21:05:15 71° WSW 21:10:27 10° S
EXPRESS MD2 3.6 21:04:13 10° WSW 21:06:47 52° NNW 21:11:11 10° NE
Cosmos 614 Rocket 4.1 21:05:55 10° NNW 21:11:01 74° WSW 21:15:50 12° S
Atlas Centaur 2 3.6 21:04:02 10° WSW 21:11:20 37° S 21:15:23 21° SE
CZ-4B DEB 3.0 21:16:27 38° E 21:16:43 39° ENE 21:19:26 10° N
Okean 2 4.3 21:16:00 10° NNE 21:19:36 29° ENE 21:20:18 28° E
Cosmos 1536 Rocket 3.8 21:15:35 10° NNW 21:19:53 67° W 21:24:03 11° S
Helios 1A 2.9 21:21:40 22° SSE 21:24:23 87° ENE 21:28:39 10° NNW
Meteor 1-29 2.9 21:23:01 10° NNE 21:26:24 56° E 21:27:13 42° SSE
MetOp-A 4.4 21:25:06 28° SE 21:27:38 49° ENE 21:32:47 10° N
SAR-Lupe-4 3.8 21:27:40 42° ESE 21:28:21 48° ENE 21:31:50 10° N
ERS-1 Rocket 3.1 21:26:23 29° SE 21:28:46 55° ENE 21:33:40 10° N
Cosmos 1741 Rocket 4.0 21:24:50 10° NNW 21:30:06 81° WSW 21:33:28 23° SSE
H-2A R/B 3.1 21:29:52 25° E 21:31:03 27° ENE 21:35:13 10° N
BREEZE M DEB (TANK) 3.0 21:25:12 10° SW 21:33:55 48° SSE 21:34:57 38° ESE
Envisat 4.3 21:29:32 10° SSW 21:34:14 38° W 21:38:58 10° NNW
Meteor 1-11 Rocket 4.4 21:28:57 10° SSW 21:34:42 58° WNW 21:40:23 10° N
ATLAS 3B R/B 3.2 21:28:35 10° NNW 21:35:02 44° NE 21:38:06 27° E
GPS 2-05 Rocket1 3.9 21:33:06 10° WSW 21:35:41 29° SSW 21:35:41 29° SSW
NOSS 2-3 (D) 4.2 21:37:18 10° SW 21:41:56 69° NW 21:47:22 10° NNE
SAR-Lupe-1 3.9 21:45:10 66° E 21:45:19 68° ENE 21:48:54 10° N
Abrixas rocket 4.5 21:43:04 10° NW 21:45:38 21° N 21:47:01 16° NE
SL-08 RB Rocket 4.1 21:45:27 40° E 21:46:04 43° ENE 21:50:23 10° N
Cosmos 1975 4.3 21:47:28 23° NE 21:47:28 23° NE 21:49:31 10° NNE
ARGOS 3.2 21:45:46 39° SE 21:47:34 60° ENE 21:52:50 10° N
Terra 3.5 21:50:12 18° ENE 21:50:12 18° ENE 21:53:21 10° NNE
Cosmos 2278 Rocket 4.3 21:49:15 10° NNE 21:51:42 13° NE 21:53:25 11° ENE
Cosmos 2263 Rocket 2.4 21:47:30 10° NNW 21:53:10 66° WSW 21:55:53 31° S
Cosmos 2322 Rocket 3.4 21:47:49 10° SW 21:53:15 44° WNW 21:58:42 10° NNE
Cosmos 2237 4.4 21:52:58 43° SE 21:54:01 48° ESE 21:59:29 10° NE
Cosmos 1302 Rocket 4.5 21:55:20 40° E 21:55:20 40° E 21:59:50 10° NE
Cosmos 1844 Rocket 3.6 21:55:57 10° N 22:01:04 33° ENE 22:02:00 31° ENE
Cosmos 1244 Rocket 4.3 21:59:55 34° S 22:02:41 73° E 22:08:48 10° N
Cosmos 1455 Rocket 4.3 22:04:08 28° NE 22:04:08 28° NE 22:06:47 10° NNE
Cosmos 1110 Rocket 3.9 21:58:42 13° SSW 22:03:16 83° WNW 22:08:29 10° NNE
SL-16 R/B 3.7 21:58:52 10° SW 22:04:03 36° WNW 22:09:17 10° N
Cosmos 1515 3.8 22:04:25 10° N 22:07:55 73° NNW 22:07:55 73° NNW
ATLAS 2AS CENTAUR R/B 3.2 22:00:38 10° SW 22:08:19 74° NW 22:16:29 10° NNE
Cosmos 2322 3.6 22:08:48 18° SSW 22:13:02 90° S 22:18:45 10° NNE
Cosmos 2219 Rocket 3.8 22:16:11 20° ENE 22:16:11 20° ENE 22:18:22 10° NE
Cosmos 1331 Rocket 4.2 22:14:52 21° SSW 22:18:20 69° WNW 22:23:35 10° NNE
Helios 1B rocket 4.5 22:15:25 10° NNW 22:18:52 27° WNW 22:22:19 10° SW
Cosmos 1238 Rocket 4.0 22:12:57 10° N 22:19:44 81° E 22:21:22 54° SSE
COSMOS 2428 2.8 22:22:19 56° E 22:22:19 56° E 22:27:24 10° NNE
Cosmos 1500 3.9 22:24:18 53° NNW 22:24:18 53° NNW 22:27:29 10° N
SL-08 R/B 4.4 22:22:32 58° SE 22:23:39 69° E 22:29:57 10° NNE
Aureole 3 Rocket 4.3 22:18:13 10° N 22:26:56 86° E 22:28:50 53° SSE
Cosmos 2360 Rocket 2.7 22:21:38 10° SW 22:27:10 57° WNW 22:32:43 10° NNE
YAOGAN 11 4.2 22:28:58 70° NW 22:28:58 70° NW 22:32:55 10° NNW
Tiangong 1 4.2 22:26:20 10° W 22:26:23 10° W 22:26:23 10° W
SPOT 1/Viking Rocket 3.4 22:31:56 82° S 22:32:10 87° WSW 22:37:25 10° NNW
Cosmos 1025 Rocket 4.4 22:28:24 10° NNW 22:32:12 32° W 22:32:56 30° WSW
Cosmos 1844 4.2 22:27:35 10° NNW 22:33:02 45° ENE 22:33:04 45° ENE
Cosmos 2333 Rocket 3.8 22:38:20 22° NE 22:38:20 22° NE 22:40:33 10° NE
SPOT 5 3.1 22:35:22 59° WSW 22:35:36 60° WSW 22:40:17 10° NNW
Cosmos 2333 4.2 22:44:54 70° NE 22:44:54 70° NE 22:49:54 10° NNE
Lacrosse 5 3.1 22:39:40 10° WSW 22:44:26 40° NW 22:49:14 10° NNE
BREEZE-M DEB 4.1 22:41:52 10° WNW 22:46:59 40° NNW 22:46:59 40° NNW
Nimbus 7 Rocket 4.4 22:42:00 10° NNE 22:47:52 80° WNW 22:48:39 67° SW
H-2A R/B 3.9 22:50:04 24° NNE 22:50:04 24° NNE 22:52:15 10° N
Cosmos 1503 Rocket 4.5 22:49:02 10° NNW 22:53:32 55° NNE 22:53:32 55° NNE
Cosmos 1745 Rocket 3.8 22:55:56 78° SW 22:56:17 81° W 23:02:28 10° N
Cosmos 2237 Rocket 4.0 23:00:29 19° NE 23:00:29 19° NE 23:02:13 10° NE
Atlas Centaur 2 4.2 22:54:22 10° WSW 22:58:00 20° SW 22:58:00 20° SW
NOSS 3-2 (A) 3.9 22:57:47 10° NNW 23:05:21 77° NE 23:06:18 69° ESE
USA 238 DEB 3.9 22:59:02 10° NW 23:06:01 62° WSW 23:06:30 60° SW
USA 238 3.9 22:59:07 10° NW 23:06:08 62° WSW 23:06:37 61° SW
H-2A R/B 3.2 23:10:30 34° W 23:10:30 34° W 23:14:54 10° NNW
ATLAS 3B R/B 3.5 23:19:34 10° NW 23:25:20 37° WSW 23:25:20 37° WSW
Terra 3.2 23:29:05 35° NW 23:29:05 35° NW 23:32:07 10° NNW
Cosmos 2278 Rocket 3.0 23:31:06 10° NNW 23:35:15 49° N 23:35:15 49° N
NOSS 3-2 (C) 3.9 23:35:30 10° NW 23:42:56 83° W 23:42:56 83° W
Cosmos 1844 Rocket 4.1 23:39:49 10° NW 23:43:39 32° WNW 23:43:39 32° WNW
